User: anonymous   Login
Location: Home
(42.5358°N, 72.7383°W)
Time: 15:36:35
(UTC-04:00)
Language:

DMSP 5D-2 F13 DEB - Orbit

View from above orbital plane
View from above orbital plane
View from above satellite
View from above satellite

Ground track
Ground track

The orbit data is extracted from the following two-line orbital elements,

1 40395U 95015G   24165.58704106  .00002545  00000-0  10765-2 0  9997
2 40395  98.6477 186.0505 0025119 258.4388 101.3972 14.26213555482949
Epoch (UTC): 13 June 2024 14:05:20
Eccentricity: 0.0025119
inclination: 98.6477°
perigee height: 786 km
apogee height: 822 km
right ascension of ascending node: 186.0505°
argument of perigee: 258.4388°
revolutions per day: 14.26213555
mean anomaly at epoch: 101.3972°
orbit number at epoch: 48294

The dashed part of the orbit path shows where the satellite is in the earth's shadow,  

DLR